Location: Campillo
(40.8621°N, 4.2488°W)
Time: 15:23:51
(UTC+00:00)

USA 306 - Pass Details

Date: 28 September 2021
Orbit: 564 x 573 km, 54.0° (Epoch: 24 September)

Event Time Altitude Azimuth Distance (km) Brightness Sun altitude
Rises 20:57:16 0° 309° (NW) 2,762 7.5 -32.5°
Reaches altitude 10° 20:59:31 10° 307° (NW) 1,864 6.3 -32.9°
Enters shadow 21:01:00 21° 305° (NW) 1,295 5.3 -33.1°
